FW6726 Weather Reports


Display with metric or nautical units.
time (UTC)temp
F
wind
direction
speed
MPH
gust
MPH
rain 1hr
in
rain 24hr
in
rain mn
in
humidity
%
barometer
mb
20260902143741 66 39 2.0 4.0 0.00 0.00 0.00 69 1018.5
20260902143607 66 39 2.0 4.0 0.00 0.00 0.00 69 1018.5
20260902143237 65 0 0.0 0.0 0.00 0.00 0.00 69 1018.4
20260902142513 65 0 0.0 0.0 0.00 0.00 0.00 70 1018.4
20260902142014 64 1 0.0 0.0 0.00 0.00 0.00 70 1018.3
20260902141513 64 1 0.0 0.0 0.00 0.00 0.00 70 1018.2
20260902141234 64 1 0.0 0.0 0.00 0.00 0.00 70 1018.1
20260902140513 64 1 0.0 0.0 0.00 0.00 0.00 70 1018.1
20260902140016 64 1 0.0 0.0 0.00 0.00 0.00 70 1018.2
20260902135737 64 1 0.0 0.0 0.00 0.00 0.00 70 1018.2
20260902135014 63 1 0.0 0.0 0.00 0.00 0.00 70 1018.1
20260902134957 63 1 0.0 0.0 0.00 0.00 0.00 70 1018.2
20260902134014 63 1 0.0 0.0 0.00 0.00 0.00 70 1018.1
20260902133512 63 1 0.0 1.0 0.00 0.00 0.00 69 1018.2
20260902133014 63 0 0.0 1.0 0.00 0.00 0.00 69 1018.1
20260902132512 63 1 0.0 0.0 0.00 0.00 0.00 69 1018.1
20260902132013 63 302 0.0 0.0 0.00 0.00 0.00 69 1018.1
20260902131514 63 238 0.0 0.0 0.00 0.00 0.00 69 1017.9
20260902131013 63 238 0.0 0.0 0.00 0.00 0.00 68 1017.9
20260902130513 63 238 0.0 0.0 0.00 0.00 0.00 68 1017.9
20260902130236 63 238 0.0 1.0 0.00 0.00 0.00 68 1018.1
20260902125512 63 238 0.0 1.0 0.00 0.00 0.00 68 1018.1
20260902125011 63 238 0.0 0.0 0.00 0.00 0.00 67 1018.1
20260902124511 63 238 0.0 1.0 0.00 0.00 0.00 67 1017.9
20260902124010 63 238 0.0 1.0 0.00 0.00 0.00 66 1017.8
20260902123732 63 238 1.0 2.0 0.00 0.00 0.00 65 1017.7
20260902123012 63 238 1.0 3.0 0.00 0.00 0.00 65 1017.7
20260902122511 63 238 2.0 3.0 0.00 0.00 0.00 64 1017.7
20260902122003 63 238 2.0 3.0 0.00 0.00 0.00 64 1017.7
20260902121504 63 238 2.0 3.0 0.00 0.00 0.00 64 1017.6
20260902121006 63 238 2.0 4.0 0.00 0.00 0.00 64 1017.6
20260902120502 63 233 3.0 4.0 0.00 0.00 0.00 64 1017.5
20260902115957 63 226 2.0 3.0 0.00 0.00 0.00 65 1017.5
20260902115451 63 224 0.0 0.0 0.00 0.00 0.00 65 1017.4
20260902114952 63 224 0.0 0.0 0.00 0.00 0.00 65 1017.4
20260902114445 63 224 0.0 0.0 0.00 0.00 0.00 66 1017.4
20260902113942 63 224 0.0 0.0 0.00 0.00 0.00 65 1017.3
20260902113443 63 224 0.0 0.0 0.00 0.00 0.00 64 1017.4
20260902112932 63 224 0.0 0.0 0.00 0.00 0.00 63 1017.3
20260902112433 63 224 0.0 0.0 0.00 0.00 0.00 62 1017.3
20260902111933 63 224 0.0 0.0 0.00 0.00 0.00 63 1017.2
20260902111432 64 224 0.0 0.0 0.00 0.00 0.00 62 1017.3
20260902110932 64 224 0.0 0.0 0.00 0.00 0.00 62 1017.3
20260902110432 64 224 0.0 0.0 0.00 0.00 0.00 62 1017.2
20260902105932 64 224 0.0 0.0 0.00 0.00 0.00 61 1017.3
20260902105431 64 224 0.0 0.0 0.00 0.00 0.00 61 1017.3
20260902105159 64 224 0.0 0.0 0.00 0.00 0.00 61 1017.3
20260902104431 64 224 0.0 0.0 0.00 0.00 0.00 61 1017.3
20260902104151 64 224 0.0 0.0 0.00 0.00 0.00 61 1017.5
20260902103413 64 224 0.0 0.0 0.00 0.00 0.00 60 1017.5
20260902103133 65 224 0.0 0.0 0.00 0.00 0.00 60 1017.6
20260902102411 65 224 0.0 0.0 0.00 0.00 0.00 60 1017.5
20260902101910 65 224 0.0 2.0 0.00 0.00 0.00 60 1017.6
20260902101408 65 224 0.0 2.0 0.00 0.00 0.00 60 1017.5
20260902100910 65 224 2.0 4.0 0.00 0.00 0.00 58 1017.5
20260902100408 65 224 2.0 4.0 0.00 0.00 0.00 58 1017.4
20260902095909 65 227 0.0 0.0 0.00 0.00 0.00 59 1017.4
20260902095408 65 228 0.0 0.0 0.00 0.00 0.00 58 1017.3
20260902095127 65 228 0.0 0.0 0.00 0.00 0.00 58 1017.2
20260902095117 65 228 0.0 0.0 0.00 0.00 0.00 58 1017.2
20260902093909 65 228 0.0 0.0 0.00 0.00 0.00 58 1017.2
20260902093403 65 228 0.0 0.0 0.00 0.00 0.00 58 1017.3
20260902092903 65 228 0.0 0.0 0.00 0.00 0.00 58 1017.3
20260902092402 65 228 0.0 0.0 0.00 0.00 0.00 58 1017.3
20260902091903 65 228 0.0 0.0 0.00 0.00 0.00 58 1017.4
20260902091402 65 228 0.0 0.0 0.00 0.00 0.00 58 1017.4
20260902091126 65 228 0.0 0.0 0.00 0.00 0.00 58 1017.2
20260902090402 65 228 0.0 0.0 0.00 0.00 0.00 57 1017.3
20260902085850 65 228 0.0 0.0 0.00 0.00 0.00 57 1017.4
20260902085347 65 228 0.0 0.0 0.00 0.00 0.00 57 1017.3
20260902085319 65 228 0.0 0.0 0.00 0.00 0.00 57 1017.2
20260902084553 65 228 0.0 0.0 0.00 0.00 0.00 57 1017.2
20260902083832 65 228 0.0 2.0 0.00 0.00 0.00 58 1017.3
20260902083555 65 228 1.0 2.0 0.00 0.00 0.00 58 1017.4
20260902082832 65 228 0.0 3.0 0.00 0.00 0.00 58 1017.3
20260902082817 65 228 0.0 3.0 0.00 0.00 0.00 57 1017.3
20260902081832 65 228 2.0 3.0 0.00 0.00 0.00 57 1017.4
20260902081332 65 228 1.0 3.0 0.00 0.00 0.00 58 1017.5
20260902080831 66 220 0.0 0.0 0.00 0.00 0.00 58 1017.5
20260902080331 66 220 0.0 0.0 0.00 0.00 0.00 58 1017.4
20260902075832 66 220 0.0 0.0 0.00 0.00 0.00 58 1017.5
20260902075810 66 220 0.0 0.0 0.00 0.00 0.00 58 1017.4
20260902074834 66 220 0.0 0.0 0.00 0.00 0.00 58 1017.5
20260902074333 66 220 0.0 0.0 0.00 0.00 0.00 58 1017.4
20260902073833 66 220 0.0 0.0 0.00 0.00 0.00 57 1017.5
20260902073331 66 220 0.0 0.0 0.00 0.00 0.00 57 1017.3
20260902072832 66 220 0.0 0.0 0.00 0.00 0.00 58 1017.3
20260902072331 66 220 0.0 0.0 0.00 0.00 0.00 57 1017.4
20260902071825 66 220 0.0 0.0 0.00 0.00 0.00 56 1017.3
20260902071312 66 220 0.0 2.0 0.00 0.00 0.00 56 1017.2
20260902070814 66 220 0.0 3.0 0.00 0.00 0.00 56 1017.3
20260902070310 66 220 2.0 3.0 0.00 0.00 0.00 56 1017.2
20260902065807 66 220 2.0 4.0 0.00 0.00 0.00 56 1017.2
20260902065309 66 220 3.0 4.0 0.00 0.00 0.00 56 1017.2
20260902064808 66 75 0.0 0.0 0.00 0.00 0.00 56 1017.1
20260902064306 66 75 0.0 0.0 0.00 0.00 0.00 57 1017.2
20260902063805 66 75 0.0 0.0 0.00 0.00 0.00 59 1017.0
20260902063747 66 75 0.0 0.0 0.00 0.00 0.00 60 1017.1
20260902062804 67 75 0.0 0.0 0.00 0.00 0.00 59 1017.0
20260902062306 67 75 0.0 2.0 0.00 0.00 0.00 59 1017.0
20260902062023 67 75 0.0 3.0 0.00 0.00 0.00 59 1017.1
20260902061528 67 75 2.0 3.0 0.00 0.00 0.00 58 1017.2
20260902060802 67 75 0.0 3.0 0.00 0.00 0.00 57 1017.2
20260902060303 67 75 0.0 4.0 0.00 0.00 0.00 56 1017.2
20260902055803 67 75 2.0 4.0 0.00 0.00 0.00 56 1017.1
20260902055306 67 75 1.0 5.0 0.00 0.00 0.00 56 1017.1
20260902054803 67 75 3.0 5.0 0.00 0.00 0.00 56 1017.2
20260902054303 67 56 0.0 1.0 0.00 0.00 0.00 56 1017.1
20260902053802 67 56 0.0 0.0 0.00 0.00 0.00 56 1017.1
20260902053303 67 56 0.0 0.0 0.00 0.00 0.00 56 1017.1
20260902052803 67 56 0.0 0.0 0.00 0.00 0.00 56 1017.1
20260902052306 68 56 0.0 0.0 0.00 0.00 0.00 57 1017.1
20260902051802 68 56 0.0 0.0 0.00 0.00 0.00 57 1017.1
20260902051522 68 56 0.0 0.0 0.00 0.00 0.00 56 1017.1
20260902050801 68 56 0.0 0.0 0.00 0.00 0.00 57 1017.1
20260902050303 68 56 0.0 0.0 0.00 0.00 0.00 56 1017.0
20260902045802 68 56 0.0 0.0 0.00 0.00 0.00 56 1016.9
20260902045306 68 56 0.0 0.0 0.00 0.00 0.00 56 1016.9
20260902045022 68 56 0.0 0.0 0.00 0.00 0.00 56 1016.8
20260902044302 68 56 0.0 0.0 0.00 0.00 0.00 56 1016.7
20260902043801 68 56 0.0 0.0 0.00 0.00 0.00 56 1016.7
20260902043302 68 56 0.0 0.0 0.00 0.00 0.00 56 1016.6
20260902043024 69 56 0.0 0.0 0.00 0.00 0.00 55 1016.6
20260902042308 69 56 0.0 3.0 0.00 0.00 0.00 55 1016.7
20260902041759 69 56 0.0 4.0 0.00 0.00 0.00 55 1016.6
20260902041301 69 56 2.0 4.0 0.00 0.00 0.00 55 1016.6
20260902040759 69 10 2.0 3.0 0.00 0.00 0.00 55 1016.6
20260902040259 69 0 1.0 3.0 0.00 0.00 0.00 55 1016.6
20260902035759 69 0 2.0 3.0 0.00 0.00 0.00 55 1016.6
20260902035259 69 0 2.0 3.0 0.00 0.00 0.00 55 1016.5
20260902034759 69 313 1.0 4.0 0.00 0.00 0.00 53 1016.4
20260902034259 69 307 1.0 4.0 0.00 0.00 0.00 53 1016.3
20260902033759 69 313 2.0 5.0 0.00 0.00 0.00 53 1016.3
20260902033300 68 306 4.0 6.0 0.00 0.00 0.00 54 1016.2
20260902032759 68 292 4.0 7.0 0.00 0.00 0.00 54 1016.3
20260902032243 68 305 5.0 7.0 0.00 0.00 0.00 54 1016.2
20260902031743 68 288 4.0 5.0 0.00 0.00 0.00 54 1016.2
20260902031242 68 276 1.0 7.0 0.00 0.00 0.00 54 1016.3
20260902030738 68 279 5.0 7.0 0.00 0.00 0.00 54 1016.3
20260902030238 68 281 3.0 9.0 0.00 0.00 0.00 53 1016.2
20260902025736 69 288 6.0 9.0 0.00 0.00 0.00 52 1016.1
20260902025236 69 262 5.0 7.0 0.00 0.00 0.00 51 1016.1
20260902024732 70 244 6.0 7.0 0.00 0.00 0.00 51 1016.1
20260902024233 70 254 3.0 7.0 0.00 0.00 0.00 51 1016.1
20260902023732 71 203 2.0 7.0 0.00 0.00 0.00 50 1016.1
20260902023232 71 290 3.0 6.0 0.00 0.00 0.00 50 1016.1
20260902022732 71 252 2.0 7.0 0.00 0.00 0.00 50 1016.1
20260902022449 72 285 6.0 9.0 0.00 0.00 0.00 49 1016.1
20260902021733 73 275 6.0 9.0 0.00 0.00 0.00 47 1016.1
20260902021232 74 269 5.0 7.0 0.00 0.00 0.00 46 1016.0
20260902020733 75 281 3.0 5.0 0.00 0.00 0.00 46 1016.1
20260902020232 76 268 4.0 5.0 0.00 0.00 0.00 46 1016.1
20260902015733 76 288 3.0 5.0 0.00 0.00 0.00 45 1016.0
20260902015232 77 261 3.0 6.0 0.00 0.00 0.00 45 1016.1
20260902014733 78 238 4.0 6.0 0.00 0.00 0.00 44 1016.1
20260902014232 78 179 2.0 4.0 0.00 0.00 0.00 46 1016.1
20260902013733 77 58 0.0 3.0 0.00 0.00 0.00 49 1016.1
20260902013232 77 58 1.0 3.0 0.00 0.00 0.00 49 1016.1
20260902013221 77 58 2.0 3.0 0.00 0.00 0.00 49 1016.0
20260902012233 77 58 2.0 4.0 0.00 0.00 0.00 49 1016.1
20260902011732 77 58 2.0 4.0 0.00 0.00 0.00 50 1016.1
20260902011233 77 61 2.0 4.0 0.00 0.00 0.00 50 1016.0
20260902010732 77 62 3.0 4.0 0.00 0.00 0.00 49 1016.2
20260902010232 77 78 3.0 5.0 0.00 0.00 0.00 50 1016.2
20260902005731 78 87 3.0 5.0 0.00 0.00 0.00 51 1016.2
20260902005232 78 75 4.0 6.0 0.00 0.00 0.00 50 1016.3
20260902004732 78 76 4.0 6.0 0.00 0.00 0.00 50 1016.3
20260902004232 80 78 5.0 6.0 0.00 0.00 0.00 48 1016.3
20260902003731 80 80 4.0 6.0 0.00 0.00 0.00 47 1016.3
20260902003230 81 92 4.0 6.0 0.00 0.00 0.00 46 1016.3
20260902002956 81 89 4.0 6.0 0.00 0.00 0.00 43 1016.4
20260902002231 82 104 2.0 6.0 0.00 0.00 0.00 42 1016.4
20260902001732 82 89 4.0 6.0 0.00 0.00 0.00 42 1016.4
20260902001232 82 100 3.0 5.0 0.00 0.00 0.00 42 1016.5
20260902000731 82 110 2.0 6.0 0.00 0.00 0.00 43 1016.5
20260902000233 81 85 3.0 6.0 0.00 0.00 0.00 42 1016.5
20260901235731 82 110 3.0 5.0 0.00 0.00 0.00 42 1016.6
20260901235231 81 97 2.0 5.0 0.00 0.00 0.00 43 1016.6
20260901234731 81 113 3.0 7.0 0.00 0.00 0.00 42 1016.7
20260901234233 80 94 4.0 7.0 0.00 0.00 0.00 43 1016.8
20260901233733 80 106 2.0 5.0 0.00 0.00 0.00 45 1016.9
20260901233232 79 86 3.0 7.0 0.00 0.00 0.00 46 1016.9
20260901232734 79 66 5.0 7.0 0.00 0.00 0.00 47 1016.9
20260901232450 78 96 3.0 6.0 0.00 0.00 0.00 47 1017.0
20260901231733 78 85 4.0 9.0 0.00 0.00 0.00 49 1017.1
20260901231231 78 87 5.0 10.0 0.00 0.00 0.00 49 1017.1
20260901230733 77 97 4.0 10.0 0.00 0.00 0.00 52 1017.1
20260901230231 77 65 5.0 7.0 0.00 0.00 0.00 51 1017.2
20260901225730 78 83 5.0 9.0 0.00 0.00 0.00 48 1017.3
20260901225231 78 85 6.0 11.0 0.00 0.00 0.00 50 1017.4
20260901224728 78 78 6.0 11.0 0.00 0.00 0.00 50 1017.4
20260901224228 78 102 4.0 11.0 0.00 0.00 0.00 49 1017.5
20260901223723 78 90 6.0 9.0 0.00 0.00 0.00 49 1017.4
20260901223448 79 100 5.0 10.0 0.00 0.00 0.00 48 1017.5
20260901222723 80 63 8.0 10.0 0.00 0.00 0.00 48 1017.6
20260901222224 80 99 3.0 9.0 0.00 0.00 0.00 47 1017.7
20260901221722 80 90 4.0 10.0 0.00 0.00 0.00 49 1017.7
20260901221219 80 90 6.0 10.0 0.00 0.00 0.00 47 1017.7
20260901220943 80 120 3.0 7.0 0.00 0.00 0.00 48 1017.7
20260901220216 80 111 6.0 7.0 0.00 0.00 0.00 48 1017.8
20260901215709 80 147 2.0 7.0 0.00 0.00 0.00 49 1017.8
20260901215203 80 118 4.0 7.0 0.00 0.00 0.00 50 1017.9
20260901214703 80 113 3.0 11.0 0.00 0.00 0.00 51 1018.1
20260901214202 79 96 4.0 11.0 0.00 0.00 0.00 51 1017.9
20260901213705 80 83 5.0 11.0 0.00 0.00 0.00 52 1018.1
20260901213203 80 83 6.0 11.0 0.00 0.00 0.00 52 1018.2
20260901212704 80 87 5.0 10.0 0.00 0.00 0.00 51 1018.1
20260901212203 80 103 5.0 10.0 0.00 0.00 0.00 52 1018.1
20260901212148 80 94 4.0 9.0 0.00 0.00 0.00 52 1018.2
20260901211203 80 131 3.0 6.0 0.00 0.00 0.00 52 1018.2
20260901210703 80 128 2.0 6.0 0.00 0.00 0.00 53 1018.3
20260901210151 79 130 4.0 9.0 0.00 0.00 0.00 53 1018.4
20260901205915 79 100 3.0 9.0 0.00 0.00 0.00 54 1018.3
20260901205150 78 92 5.0 9.0 0.00 0.00 0.00 55 1018.4
20260901204915 78 144 4.0 9.0 0.00 0.00 0.00 54 1018.6
20260901204150 79 99 5.0 9.0 0.00 0.00 0.00 54 1018.6
20260901203651 78 97 4.0 9.0 0.00 0.00 0.00 55 1018.6
20260901203150 78 93 5.0 9.0 0.00 0.00 0.00 55 1018.6
20260901202651 78 107 3.0 10.0 0.00 0.00 0.00 56 1018.6
20260901202150 78 93 3.0 10.0 0.00 0.00 0.00 56 1018.6
20260901201651 78 93 3.0 9.0 0.00 0.00 0.00 57 1018.6
20260901201149 78 107 4.0 9.0 0.00 0.00 0.00 56 1018.6
20260901200650 78 97 4.0 9.0 0.00 0.00 0.00 57 1018.5
20260901200148 78 127 3.0 10.0 0.00 0.00 0.00 57 1018.6
20260901195649 78 90 4.0 10.0 0.00 0.00 0.00 57 1018.6
20260901195148 78 100 3.0 9.0 0.00 0.00 0.00 57 1018.7
20260901194649 78 82 4.0 9.0 0.00 0.00 0.00 57 1018.6
20260901194409 78 102 3.0 10.0 0.00 0.00 0.00 57 1018.6
20260901193648 78 89 5.0 10.0 0.00 0.00 0.00 57 1018.6
20260901193147 78 103 3.0 10.0 0.00 0.00 0.00 57 1018.7
20260901192649 78 69 6.0 10.0 0.00 0.00 0.00 57 1018.7
20260901192147 78 110 4.0 10.0 0.00 0.00 0.00 57 1018.8
20260901191910 78 107 5.0 10.0 0.00 0.00 0.00 58 1018.9
20260901191146 77 93 4.0 10.0 0.00 0.00 0.00 58 1018.9
20260901190648 77 113 3.0 10.0 0.00 0.00 0.00 57 1019.0
20260901190147 77 131 4.0 10.0 0.00 0.00 0.00 58 1019.0
20260901185649 78 135 5.0 10.0 0.00 0.00 0.00 56 1019.0
20260901185147 78 102 3.0 7.0 0.00 0.00 0.00 58 1019.1
20260901184648 77 127 3.0 7.0 0.00 0.00 0.00 57 1019.2
20260901184146 77 97 3.0 9.0 0.00 0.00 0.00 56 1019.2
20260901183906 78 121 4.0 11.0 0.00 0.00 0.00 56 1019.2
20260901183147 78 104 4.0 11.0 0.00 0.00 0.00 57 1019.2
20260901182647 78 148 3.0 6.0 0.00 0.00 0.00 56 1019.2
20260901182146 78 130 3.0 6.0 0.00 0.00 0.00 57 1019.1
20260901181646 78 137 2.0 6.0 0.00 0.00 0.00 58 1019.1
20260901181632 77 102 2.0 6.0 0.00 0.00 0.00 59 1019.0
20260901180645 77 173 3.0 6.0 0.00 0.00 0.00 59 1019.0
20260901180146 76 138 3.0 6.0 0.00 0.00 0.00 60 1018.9
20260901175646 76 133 3.0 6.0 0.00 0.00 0.00 61 1018.9
20260901175145 76 110 2.0 7.0 0.00 0.00 0.00 62 1018.8
20260901174645 75 148 3.0 7.0 0.00 0.00 0.00 62 1018.9
20260901174144 75 113 2.0 7.0 0.00 0.00 0.00 63 1018.8
20260901173645 75 107 3.0 9.0 0.00 0.00 0.00 63 1018.8
20260901173145 75 87 4.0 9.0 0.00 0.00 0.00 63 1018.6
20260901172644 74 137 3.0 7.0 0.00 0.00 0.00 64 1018.5
20260901172145 74 73 5.0 7.0 0.00 0.00 0.00 62 1018.6
20260901171644 74 149 4.0 7.0 0.00 0.00 0.00 63 1018.5
20260901171144 74 111 3.0 9.0 0.00 0.00 0.00 64 1018.5
20260901170644 74 93 4.0 9.0 0.00 0.00 0.00 64 1018.5
20260901170144 74 90 3.0 6.0 0.00 0.00 0.00 64 1018.4
20260901165904 74 92 3.0 6.0 0.00 0.00 0.00 63 1018.4
20260901165145 74 131 3.0 6.0 0.00 0.00 0.00 63 1018.4
20260901164644 73 99 4.0 6.0 0.00 0.00 0.00 63 1018.4
20260901164143 73 111 3.0 5.0 0.00 0.00 0.00 64 1018.3
20260901163643 72 113 2.0 5.0 0.00 0.00 0.00 64 1018.3
20260901163143 72 99 3.0 5.0 0.00 0.00 0.00 65 1018.1
20260901162644 72 106 2.0 6.0 0.00 0.00 0.00 67 1018.1
20260901162144 71 123 3.0 6.0 0.00 0.00 0.00 67 1018.1
20260901161643 71 103 3.0 6.0 0.00 0.00 0.00 68 1018.1
20260901161412 71 113 2.0 5.0 0.00 0.00 0.00 70 1018.1
20260901160643 70 93 3.0 5.0 0.00 0.00 0.00 70 1017.9
20260901160406 70 102 3.0 5.0 0.00 0.00 0.00 71 1017.8
20260901155643 70 103 2.0 5.0 0.00 0.00 0.00 72 1017.9
20260901155143 69 106 1.0 3.0 0.00 0.00 0.00 73 1017.8
20260901154911 68 97 1.0 4.0 0.00 0.00 0.00 74 1017.8
20260901154144 68 94 2.0 4.0 0.00 0.00 0.00 75 1017.8
20260901153644 67 79 1.0 2.0 0.00 0.00 0.00 76 1017.9
20260901153143 67 79 1.0 2.0 0.00 0.00 0.00 76 1017.8
20260901152905 66 79 0.0 3.0 0.00 0.00 0.00 78 1017.7
20260901152143 65 82 1.0 4.0 0.00 0.00 0.00 79 1017.7
20260901151642 65 82 1.0 4.0 0.00 0.00 0.00 80 1017.6
20260901151141 64 23 0.0 3.0 0.00 0.00 0.00 81 1017.7
20260901150642 63 323 0.0 0.0 0.00 0.00 0.00 82 1017.6
20260901150139 63 323 0.0 0.0 0.00 0.00 0.00 81 1017.5
20260901145640 63 324 0.0 1.0 0.00 0.00 0.00 82 1017.5
20260901145357 62 323 0.0 2.0 0.00 0.00 0.00 82 1017.5
20260901144634 62 323 1.0 2.0 0.00 0.00 0.00 83 1017.5
20260901144131 62 323 0.0 1.0 0.00 0.00 0.00 83 1017.5